DW4393 Weather Reports


Display with metric or nautical units.
time (UTC)temp
F
wind
direction
speed
MPH
gust
MPH
rain 1hr
in
rain 24hr
in
rain mn
in
humidity
%
barometer
mb
20260508031803 58 67 0.0 0.0 0.00 0.64 0.64 92 1014.2
20260508030303 58 67 0.0 0.0 0.00 0.64 0.64 91 1014.2
20260508024803 58 67 0.0 0.0 0.00 0.65 0.64 91 1014.5
20260508024302 58 67 0.0 0.0 0.00 0.65 0.64 90 1014.4
20260508023803 58 67 0.0 0.0 0.00 0.65 0.64 90 1014.2
20260508023302 58 67 0.0 0.0 0.00 0.65 0.64 90 1014.2
20260508021803 59 67 0.0 0.0 0.00 0.67 0.64 89 1014.0
20260508020802 59 67 0.0 0.0 0.00 0.67 0.64 88 1014.1
20260508020303 60 67 0.0 0.0 0.00 0.67 0.64 89 1013.9
20260508014803 60 67 0.0 0.0 0.00 0.68 0.64 88 1013.8
20260508013803 60 67 0.0 0.0 0.00 0.68 0.64 87 1013.7
20260508013303 61 67 0.0 0.0 0.00 0.68 0.64 86 1013.7
20260508011803 62 67 0.0 0.0 0.00 0.68 0.64 84 1013.5
20260508011303 62 67 0.0 0.0 0.00 0.68 0.64 84 1013.5
20260508010803 62 67 0.0 0.0 0.00 0.68 0.64 84 1013.4
20260508010302 62 67 0.0 0.0 0.00 0.68 0.64 84 1013.3
20260508004802 63 67 0.0 0.0 0.00 0.70 0.64 83 1013.0
20260508004303 63 65 0.0 0.0 0.00 0.70 0.64 82 1013.1
20260508003803 63 65 0.0 0.0 0.00 0.70 0.64 82 1013.0
20260508001803 64 65 0.0 0.0 0.00 0.72 0.64 80 1012.6
20260508001303 64 65 0.0 1.0 0.00 0.72 0.64 79 1012.6
20260508000802 64 66 0.0 2.0 0.00 0.72 0.64 79 1012.6
20260508000305 65 116 0.0 0.0 0.00 0.72 0.64 79 1012.5
20260507234803 66 116 0.0 2.0 0.00 0.72 0.64 78 1012.5
20260507233803 66 167 0.0 1.0 0.00 0.72 0.64 76 1012.4
20260507233303 67 169 1.0 2.0 0.00 0.73 0.64 76 1012.2
20260507231803 67 99 1.0 3.0 0.00 0.74 0.64 76 1012.2
20260507231303 67 202 0.0 1.0 0.00 0.76 0.64 77 1012.1
20260507230803 67 200 1.0 3.0 0.00 0.80 0.64 75 1012.1
20260507230303 67 196 0.0 6.0 0.00 0.81 0.64 75 1012.1
20260507224804 68 234 1.0 3.0 0.00 0.81 0.64 76 1011.9
20260507224303 67 242 0.0 2.0 0.00 0.81 0.64 76 1011.7
20260507223803 68 253 1.0 2.0 0.00 0.81 0.64 75 1011.8
20260507223303 68 178 2.0 7.0 0.00 0.81 0.64 75 1011.7
20260507221803 68 355 0.0 3.0 0.00 0.81 0.64 78 1011.8
20260507221303 68 20 1.0 2.0 0.00 0.81 0.64 78 1011.6
20260507220803 68 145 1.0 3.0 0.00 0.81 0.64 76 1011.6
20260507220303 69 167 1.0 3.0 0.00 0.81 0.64 78 1011.7
20260507214803 69 99 1.0 2.0 0.00 0.81 0.64 77 1011.4
20260507214303 69 169 0.0 1.0 0.00 0.81 0.64 78 1011.1
20260507213804 69 169 0.0 2.0 0.00 0.81 0.64 76 1011.2
20260507213304 69 155 1.0 5.0 0.00 0.81 0.64 76 1011.2
20260507211803 70 212 1.0 3.0 0.00 0.81 0.64 77 1011.3
20260507211303 70 341 1.0 3.0 0.00 0.81 0.64 77 1011.2
20260507210803 70 195 2.0 3.0 0.00 0.81 0.64 77 1011.1
20260507210303 70 234 1.0 3.0 0.00 0.81 0.64 79 1011.0
20260507204803 70 151 1.0 3.0 0.00 0.81 0.64 78 1011.2
20260507204303 70 206 2.0 6.0 0.00 0.81 0.64 76 1011.1
20260507203303 71 339 1.0 5.0 0.00 0.81 0.64 78 1011.1
20260507201304 71 245 1.0 3.0 0.00 0.81 0.64 78 1011.0
20260507200804 71 193 2.0 3.0 0.00 0.81 0.64 79 1011.0
20260507200303 70 216 2.0 3.0 0.00 0.81 0.64 81 1011.0
20260507194803 69 67 1.0 2.0 0.00 0.81 0.64 83 1011.1
20260507194303 70 19 0.0 2.0 0.00 0.81 0.64 84 1011.2
20260507193804 70 262 2.0 3.0 0.00 0.81 0.64 80 1011.1
20260507193303 70 101 1.0 3.0 0.00 0.81 0.64 82 1011.1
20260507191803 68 5 0.0 2.0 0.00 0.81 0.64 84 1011.2
20260507191303 68 114 2.0 6.0 0.00 0.81 0.64 85 1011.3
20260507190804 69 56 1.0 3.0 0.00 0.81 0.64 87 1011.2
20260507190303 69 81 1.0 3.0 0.00 0.81 0.64 85 1011.1
20260507184803 69 4 1.0 3.0 0.00 0.81 0.64 88 1011.2
20260507183803 68 225 0.0 1.0 0.00 0.81 0.64 87 1011.0
20260507183303 68 42 1.0 6.0 0.00 0.81 0.64 87 1011.0
20260507181803 68 159 0.0 1.0 0.00 0.81 0.64 89 1011.0
20260507181304 69 195 0.0 1.0 0.00 0.81 0.64 88 1011.0
20260507180803 69 195 0.0 2.0 0.00 0.81 0.64 88 1010.9
20260507180303 69 56 1.0 2.0 0.00 0.81 0.64 89 1010.8
20260507174803 69 59 0.0 3.0 0.00 0.81 0.64 88 1011.0
20260507174303 69 71 0.0 1.0 0.00 0.81 0.64 88 1011.0
20260507173803 70 27 1.0 2.0 0.00 0.81 0.64 87 1011.0
20260507173303 70 252 0.0 3.0 0.00 0.81 0.64 85 1010.9
20260507171303 70 95 0.0 2.0 0.00 0.81 0.64 89 1010.9
20260507170803 69 73 0.0 3.0 0.00 0.81 0.64 90 1010.9
20260507170303 69 173 1.0 3.0 0.00 0.81 0.64 90 1011.0
20260507164303 69 162 1.0 3.0 0.00 0.81 0.64 90 1011.0
20260507163303 68 163 0.0 3.0 0.00 0.81 0.64 92 1011.0
20260507161803 67 195 0.0 1.0 0.00 0.81 0.64 93 1011.2
20260507161304 67 105 0.0 1.0 0.00 0.81 0.64 94 1011.1
20260507160804 67 197 0.0 2.0 0.00 0.81 0.64 94 1010.9
20260507160303 67 219 1.0 2.0 0.00 0.81 0.64 95 1010.9
20260507154304 67 144 0.0 1.0 0.01 0.81 0.64 96 1010.7
20260507153303 66 123 0.0 2.0 0.01 0.81 0.64 95 1010.5
20260507151303 66 5 0.0 1.0 0.05 0.81 0.64 96 1010.7
20260507150803 65 5 0.0 0.0 0.06 0.81 0.64 96 1010.8
20260507150304 65 5 0.0 1.0 0.06 0.81 0.64 96 1011.0
20260507144803 65 5 0.0 1.0 0.07 0.80 0.63 95 1010.9
20260507144303 66 5 0.0 0.0 0.07 0.80 0.63 96 1011.0
20260507143803 65 356 0.0 1.0 0.07 0.80 0.63 96 1010.9
20260507143303 65 331 1.0 2.0 0.07 0.80 0.63 96 1010.8
20260507141804 65 218 0.0 0.0 0.05 0.78 0.61 96 1011.1
20260507141304 65 218 0.0 1.0 0.03 0.76 0.59 96 1010.9
20260507140804 65 218 0.0 0.0 0.02 0.75 0.58 96 1010.8
20260507140303 65 218 0.0 1.0 0.02 0.75 0.58 96 1010.6
20260507134804 64 218 1.0 2.0 0.01 0.73 0.56 96 1011.3
20260507134303 64 300 0.0 0.0 0.02 0.73 0.56 96 1010.7
20260507133803 64 300 0.0 0.0 0.03 0.73 0.56 96 1010.0
20260507131803 64 326 0.0 0.0 0.08 0.73 0.56 96 1010.0
20260507131303 64 326 0.0 0.0 0.08 0.73 0.56 96 1010.3
20260507130803 64 329 0.0 1.0 0.08 0.73 0.56 96 1010.3
20260507124804 64 307 1.0 2.0 0.07 0.72 0.55 95 1010.5
20260507124304 64 358 1.0 3.0 0.06 0.71 0.54 95 1010.2
20260507123803 65 36 1.0 3.0 0.05 0.70 0.53 95 1010.2
20260507121303 67 277 0.0 1.0 0.00 0.65 0.48 96 1009.1
20260507120804 67 243 0.0 2.0 0.00 0.65 0.48 96 1009.1
20260507114803 67 242 0.0 1.0 0.00 0.65 0.48 96 1008.7
20260507113804 67 242 0.0 1.0 0.00 0.65 0.48 96 1008.4
20260507111804 66 22 1.0 2.0 0.01 0.65 0.48 96 1008.5
20260507111303 66 22 1.0 2.0 0.01 0.65 0.48 96 1008.5
20260507110303 66 22 0.0 1.0 0.05 0.65 0.48 96 1008.1
20260507104803 66 22 0.0 1.0 0.08 0.65 0.48 96 1008.3
20260507104303 66 22 1.0 1.0 0.08 0.65 0.48 96 1008.3
20260507103304 66 22 1.0 1.0 0.11 0.65 0.48 96 1008.5
20260507100804 64 22 0.0 0.0 0.13 0.62 0.45 96 1008.9
20260507100304 64 22 0.0 0.0 0.11 0.60 0.43 96 1008.9
20260507094304 64 22 0.0 0.0 0.08 0.57 0.40 95 1009.0
20260507093304 64 22 0.0 0.0 0.07 0.54 0.37 95 1009.8
20260507091804 64 22 0.0 0.0 0.04 0.50 0.33 95 1009.9
20260507091304 64 22 0.0 0.0 0.03 0.49 0.32 95 1009.7
20260507090803 64 22 0.0 0.0 0.03 0.49 0.32 95 1010.0
20260507090304 64 22 0.0 0.0 0.03 0.49 0.32 95 1010.3
20260507084804 64 22 0.0 0.0 0.03 0.49 0.32 95 1010.2
20260507084303 64 22 0.0 0.0 0.03 0.49 0.32 95 1010.2
20260507083804 64 22 0.0 0.0 0.02 0.48 0.31 95 1010.3
20260507083303 64 22 0.0 1.0 0.01 0.47 0.30 95 1010.4
20260507081804 64 22 0.0 0.0 0.00 0.46 0.29 95 1010.5
20260507080803 64 22 0.0 0.0 0.00 0.46 0.29 95 1010.6
20260507080304 64 22 0.0 0.0 0.00 0.46 0.29 95 1010.7
20260507074803 64 22 0.0 0.0 0.00 0.46 0.29 95 1010.4
20260507074304 64 22 0.0 0.0 0.01 0.46 0.29 95 1010.5
20260507073804 64 22 0.0 1.0 0.01 0.46 0.29 95 1010.9
20260507073303 64 22 0.0 1.0 0.02 0.46 0.29 95 1010.8
20260507071804 64 22 0.0 0.0 0.03 0.46 0.29 95 1010.6
20260507070303 64 22 0.0 0.0 0.04 0.46 0.29 95 1010.2
20260507064803 65 22 0.0 0.0 0.05 0.46 0.29 95 1010.2
20260507064304 65 22 0.0 0.0 0.04 0.45 0.28 95 1010.4
20260507063803 65 22 0.0 0.0 0.05 0.45 0.28 95 1010.5
20260507063307 65 22 0.0 0.0 0.05 0.44 0.27 95 1010.6
20260507061804 65 22 0.0 0.0 0.15 0.43 0.26 95 1011.4
20260507061304 65 22 0.0 0.0 0.20 0.43 0.26 95 1011.7
20260507060803 65 22 0.0 0.0 0.24 0.42 0.25 95 1011.8
20260507060304 65 22 0.0 1.0 0.24 0.42 0.25 95 1011.7
20260507054804 65 22 0.0 0.0 0.23 0.41 0.24 95 1011.6
20260507054304 65 22 0.0 1.0 0.23 0.41 0.24 95 1011.4
20260507053804 65 18 0.0 0.0 0.22 0.40 0.23 95 1011.8
20260507053304 65 18 0.0 1.0 0.22 0.39 0.22 94 1012.0
20260507051804 65 17 0.0 0.0 0.11 0.28 0.11 95 1012.7
20260507051304 66 17 0.0 1.0 0.06 0.23 0.06 95 1012.5
20260507050804 66 17 0.0 1.0 0.01 0.18 0.01 94 1012.2
20260507050304 66 17 0.0 1.0 0.01 0.18 0.01 94 1012.1
20260507044804 66 17 0.0 0.0 0.01 0.18 0.01 94 1012.2
20260507044304 66 17 0.0 0.0 0.01 0.18 0.01 94 1012.1
20260507043304 67 17 0.0 0.0 0.00 0.17 0.00 95 1012.2
20260507041804 68 17 1.0 1.0 0.00 0.17 0.00 94 1012.1
20260507040821 69 321 0.0 0.0 0.00 0.17 0.00 94 1012.4
20260507040302 69 321 0.0 0.0 0.00 0.17 0.00 95 1012.3
20260507034802 69 321 0.0 0.0 0.01 0.17 0.17 95 1012.4
20260507034303 69 321 0.0 0.0 0.01 0.17 0.17 95 1012.5
20260507033803 69 321 0.0 0.0 0.01 0.17 0.17 95 1012.3